Terug naar catalogus

HJS-7D

ActiefWetenschapLEO
NORAD 65620·PAYLOAD·🇨🇳 China

Gelanceerd Sep 16, 2025 vanaf Jiuquan Satellite Launch Center

Loading…

Volgende Passages (komende 24 uur)

TLE

VersSource: Space-Track

Epoch: Sep 14, 2026, 09:22 UTC

1 65620U 25209D   26257.39055927 -.00000087  00000-0  73141-4 0  9995
2 65620  50.0018  31.7297 0003638 299.5567  60.4948 13.41483130 49616

Volg HJS-7D in realtime met AllMySat

Download on the App Store